Location: Le Castellard
(44.1862°N, 6.1301°E)
Time: 02:42:31
(UTC+00:00)

Cosmos 2181 Rocket - Pass Details

Date: 18 January 2020
Orbit: 952 x 1014 km, 82.9° (Epoch: 22 February)

Event Time Altitude Azimuth Distance (km) Brightness Sun altitude
Rises 06:15:52 0° 203° (SSW) 3,627 7.0 -9.1°
Reaches altitude 10° 06:18:26 10° 208° (SSW) 2,692 6.2 -8.6°
Maximum altitude 06:24:23 50° 283° (WNW) 1,227 4.2 -7.6°
Drops below altitude 10° 06:30:29 10° 358° (N) 2,748 6.1 -6.6°
Sets 06:33:08 0° 4° (N) 3,710 6.8 -6.2°
